,,PA_Meas_PMT16A,,PR_Meas_QMR101_102,,RH_Meas_QMH101,,SR_Meas_QMS101,,TA_Meas_QMH101,,GenWind,,GenWind,
time,status,PA,status,PR,status,RH,status,SR,status,TA,status,DirAvg,status,SpdAvg,
2016-08-07, 14:08:04,VALID,918.629,VALID,0,VALID,104,VALID,106.904,VALID,19.7268,VALID,129,VALID,0,
2016-08-07, 14:09:04,VALID,918.638,VALID,0,VALID,104,VALID,109.483,VALID,19.7643,VALID,71,VALID,0,
2016-08-07, 14:10:04,VALID,918.632,VALID,0,VALID,101.224,VALID,112.276,VALID,19.8423,VALID,71,VALID,0,
2016-08-07, 14:11:04,VALID,918.654,VALID,0,VALID,98.7385,VALID,115.177,VALID,19.9398,VALID,71,VALID,0,
2016-08-07, 14:12:04,VALID,918.711,VALID,0,VALID,96.0245,VALID,118.078,VALID,20.0764,VALID,71,VALID,0,
2016-08-07, 14:13:04,VALID,918.669,VALID,0,VALID,92.6779,VALID,121.086,VALID,20.2504,VALID,71,VALID,0,
2016-08-07, 14:14:04,VALID,918.718,VALID,0,VALID,86.6782,VALID,123.88,VALID,20.465,VALID,71,VALID,0,
2016-08-07, 14:15:04,VALID,918.714,VALID,0,VALID,85.1688,VALID,126.888,VALID,20.543,VALID,71,VALID,0,
2016-08-07, 14:16:04,VALID,918.713,VALID,0,VALID,85.9464,VALID,130.004,VALID,20.5836,VALID,71,VALID,0,
2016-08-07, 14:17:04,VALID,918.714,VALID,0,VALID,85.1459,VALID,132.797,VALID,20.6226,VALID,71,VALID,0,
2016-08-07, 14:18:04,VALID,918.725,VALID,0,VALID,85.4432,VALID,135.698,VALID,20.5625,VALID,71,VALID,0,
2016-08-07, 14:19:04,VALID,918.718,VALID,0,VALID,86.015,VALID,138.492,VALID,20.5641,VALID,71,VALID,0,
2016-08-07, 14:20:04,VALID,918.691,VALID,0,VALID,86.6859,VALID,141.607,VALID,20.543,VALID,71,VALID,0,
2016-08-07, 14:21:04,VALID,918.689,VALID,0,VALID,88.1572,VALID,144.938,VALID,20.543,VALID,71,VALID,0,
2016-08-07, 14:22:04,VALID,918.654,VALID,0,VALID,88.3859,VALID,147.839,VALID,20.5445,VALID,71,VALID,0,
2016-08-07, 14:23:04,VALID,918.67,VALID,0,VALID,89.7124,VALID,151.385,VALID,20.5625,VALID,71,VALID,0,
2016-08-07, 14:24:04,VALID,918.672,VALID,0,VALID,87.2195,VALID,154.5,VALID,20.5625,VALID,71,VALID,0,
2016-08-07, 14:25:04,VALID,918.677,VALID,0,VALID,85.55,VALID,157.831,VALID,20.543,VALID,71,VALID,0,
2016-08-07, 14:26:04,VALID,918.709,VALID,0,VALID,85.3746,VALID,160.839,VALID,20.5219,VALID,13,VALID,0,
2016-08-07, 14:27:04,VALID,918.727,VALID,0,VALID,89.8496,VALID,164.17,VALID,20.582,VALID,12,VALID,0,
2016-08-07, 14:28:04,VALID,918.703,VALID,0,VALID,87.2347,VALID,167.178,VALID,20.5219,VALID,13,VALID,0,
2016-08-07, 14:29:04,VALID,918.697,VALID,0,VALID,86.846,VALID,170.187,VALID,20.5219,VALID,13,VALID,0,
2016-08-07, 14:30:04,VALID,918.7,VALID,0,VALID,87.5168,VALID,173.41,VALID,20.5594,VALID,13,VALID,0,
2016-08-07, 14:31:04,VALID,918.733,VALID,0,VALID,87.0442,VALID,177.063,VALID,20.717,VALID,13,VALID,0,
2016-08-07, 14:32:04,VALID,918.736,VALID,0,VALID,86.6706,VALID,180.286,VALID,20.8535,VALID,12,VALID,0,
2016-08-07, 14:33:04,VALID,918.761,VALID,0,VALID,85.4966,VALID,183.617,VALID,20.9511,VALID,13,VALID,0,
2016-08-07, 14:34:04,VALID,918.791,VALID,0,VALID,86.1598,VALID,187.055,VALID,21.1071,VALID,13,VALID,0,
2016-08-07, 14:35:04,VALID,918.737,VALID,0,VALID,81.9441,VALID,190.278,VALID,21.2242,VALID,23,VALID,0,
2016-08-07, 14:36:04,VALID,918.769,VALID,0,VALID,83.4688,VALID,193.394,VALID,21.3234,VALID,19,VALID,0,
2016-08-07, 14:37:04,VALID,918.759,VALID,0,VALID,81.6163,VALID,196.832,VALID,21.3998,VALID,19,VALID,0,
2016-08-07, 14:38:04,VALID,918.763,VALID,0,VALID,83.1867,VALID,200.055,VALID,21.4583,VALID,13,VALID,0,
2016-08-07, 14:39:04,VALID,918.776,VALID,0,VALID,81.3571,VALID,203.279,VALID,21.5363,VALID,13,VALID,0,
2016-08-07, 14:40:04,VALID,918.772,VALID,0,VALID,80.7091,VALID,206.394,VALID,21.6144,VALID,13,VALID,0,
2016-08-07, 14:41:04,VALID,918.798,VALID,0,VALID,78.7423,VALID,209.725,VALID,21.712,VALID,35,VALID,0,
2016-08-07, 14:42:04,VALID,918.791,VALID,0,VALID,79.436,VALID,213.163,VALID,21.8095,VALID,34,VALID,0,
2016-08-07, 14:43:04,VALID,918.807,VALID,0,VALID,79.7638,VALID,216.601,VALID,21.9266,VALID,30,VALID,0,
2016-08-07, 14:44:04,VALID,918.837,VALID,0,VALID,78.4145,VALID,220.039,VALID,22.081,VALID,30,VALID,0,
2016-08-07, 14:45:04,VALID,918.852,VALID,0,VALID,79.5275,VALID,223.37,VALID,22.1981,VALID,20,VALID,0,
2016-08-07, 14:46:04,VALID,918.843,VALID,0,VALID,77.3243,VALID,226.486,VALID,22.1379,VALID,13,VALID,0,
2016-08-07, 14:47:04,VALID,918.879,VALID,0,VALID,77.1795,VALID,230.139,VALID,22.1217,VALID,23,VALID,0,
2016-08-07, 14:48:04,VALID,918.836,VALID,0,VALID,78.5745,VALID,233.685,VALID,22.1413,VALID,23,VALID,0,
2016-08-07, 14:49:04,VALID,918.84,VALID,0,VALID,80.4042,VALID,237.338,VALID,22.2388,VALID,23,VALID,0,
2016-08-07, 14:50:04,VALID,918.822,VALID,0,VALID,76.7983,VALID,240.668,VALID,22.2779,VALID,23,VALID,0,
2016-08-07, 14:51:04,VALID,918.849,VALID,0,VALID,76.844,VALID,244.214,VALID,22.1803,VALID,13,VALID,0,
2016-08-07, 14:52:04,VALID,918.864,VALID,0,VALID,78.5364,VALID,247.544,VALID,22.1005,VALID,13,VALID,0,
2016-08-07, 14:53:04,VALID,918.868,VALID,0,VALID,77.736,VALID,250.66,VALID,22.081,VALID,13,VALID,0,
2016-08-07, 14:54:04,VALID,918.918,VALID,0,VALID,76.9431,VALID,254.421,VALID,21.8859,VALID,13,VALID,0,
2016-08-07, 14:55:04,VALID,918.883,VALID,0,VALID,77.8656,VALID,257.859,VALID,21.6323,VALID,13,VALID,0,
2016-08-07, 14:56:04,VALID,918.877,VALID,0,VALID,78.8261,VALID,261.082,VALID,21.4973,VALID,13,VALID,0,
2016-08-07, 14:57:04,VALID,918.855,VALID,0,VALID,80.2822,VALID,265.165,VALID,21.4177,VALID,13,VALID,0,
2016-08-07, 14:58:04,VALID,918.872,VALID,0,VALID,80.3661,VALID,268.388,VALID,21.4957,VALID,13,VALID,0,
2016-08-07, 14:59:04,VALID,918.862,VALID,0,VALID,80.2669,VALID,271.934,VALID,21.5916,VALID,14,VALID,0,
2016-08-07, 15:00:04,VALID,918.866,VALID,0,VALID,80.4118,VALID,275.801,VALID,21.8469,VALID,14,VALID,0,
2016-08-07, 15:01:04,VALID,918.855,VALID,0,VALID,79.3445,VALID,278.917,VALID,22.0615,VALID,14,VALID,0,
2016-08-07, 15:02:04,VALID,918.842,VALID,0,VALID,79.619,VALID,282.248,VALID,22.2745,VALID,37,VALID,0,
2016-08-07, 15:03:04,VALID,918.867,VALID,0,VALID,76.1274,VALID,286.116,VALID,22.372,VALID,8,VALID,0,
2016-08-07, 15:04:04,VALID,918.885,VALID,0,VALID,77.2404,VALID,289.339,VALID,22.3135,VALID,10,VALID,0,
2016-08-07, 15:05:04,VALID,918.883,VALID,0,VALID,77.2557,VALID,292.777,VALID,22.3347,VALID,16,VALID,0,
2016-08-07, 15:06:04,VALID,918.907,VALID,0,VALID,76.6077,VALID,296.323,VALID,22.4128,VALID,356,VALID,0,
2016-08-07, 15:07:04,VALID,918.887,VALID,0,VALID,74.8315,VALID,299.653,VALID,22.4696,VALID,336,VALID,0,
2016-08-07, 15:08:04,VALID,918.909,VALID,0,VALID,76.6992,VALID,303.306,VALID,22.4111,VALID,23,VALID,0,
2016-08-07, 15:09:04,VALID,918.924,VALID,0,VALID,73.9853,VALID,306.959,VALID,22.3916,VALID,336,VALID,0,
2016-08-07, 15:10:04,VALID,918.937,VALID,0,VALID,73.5431,VALID,310.183,VALID,22.294,VALID,328,VALID,0,
2016-08-07, 15:11:04,VALID,918.939,VALID,0,VALID,76.9355,VALID,311.257,VALID,22.1379,VALID,315,VALID,0,
2016-08-07, 15:12:04,VALID,918.967,VALID,0,VALID,75.7234,VALID,315.34,VALID,22.0972,VALID,319,VALID,0,
2016-08-07, 15:13:04,VALID,918.961,VALID,0,VALID,77.6826,VALID,319.208,VALID,22.2159,VALID,319,VALID,0,
2016-08-07, 15:14:04,VALID,918.966,VALID,0,VALID,75.8454,VALID,323.076,VALID,22.3525,VALID,318,VALID,0,
2016-08-07, 15:15:04,VALID,918.96,VALID,0,VALID,74.5113,VALID,324.472,VALID,22.4891,VALID,319,VALID,0,
2016-08-07, 15:16:04,VALID,918.996,VALID,0,VALID,74.9077,VALID,328.233,VALID,22.5477,VALID,357,VALID,0,
2016-08-07, 15:17:04,VALID,919.007,VALID,0,VALID,73.9548,VALID,332.745,VALID,22.5069,VALID,2,VALID,0,
2016-08-07, 15:18:04,VALID,919.005,VALID,0,VALID,74.9382,VALID,336.613,VALID,22.5264,VALID,19,VALID,0,
2016-08-07, 15:19:04,VALID,919.041,VALID,0,VALID,73.6346,VALID,340.374,VALID,22.4891,VALID,3,VALID,0.976953,
2016-08-07, 15:20:04,VALID,919.03,VALID,0,VALID,74.0615,VALID,343.812,VALID,22.4306,VALID,350,VALID,0.0457031,
2016-08-07, 15:21:04,VALID,919.03,VALID,0,VALID,74.3131,VALID,346.39,VALID,22.4501,VALID,358,VALID,0.00273437,
2016-08-07, 15:22:04,VALID,919.005,VALID,0,VALID,75.8377,VALID,350.366,VALID,22.4306,VALID,4,VALID,0,
2016-08-07, 15:23:04,VALID,918.948,VALID,0,VALID,74.8848,VALID,353.911,VALID,22.4484,VALID,19,VALID,0,
2016-08-07, 15:24:04,VALID,918.952,VALID,0,VALID,75.5404,VALID,357.242,VALID,22.5264,VALID,29,VALID,0,
2016-08-07, 15:25:04,VALID,918.97,VALID,0,VALID,74.0767,VALID,360.68,VALID,22.6843,VALID,336,VALID,0,
2016-08-07, 15:26:04,VALID,919.013,VALID,0,VALID,74.153,VALID,362.829,VALID,22.7818,VALID,326,VALID,0,
2016-08-07, 15:27:04,VALID,919.017,VALID,0,VALID,73.7108,VALID,365.622,VALID,22.7428,VALID,299,VALID,0,
2016-08-07, 15:28:04,VALID,919.058,VALID,0,VALID,74.6637,VALID,368.845,VALID,22.6435,VALID,298,VALID,0,
2016-08-07, 15:29:04,VALID,919.036,VALID,0,VALID,74.0157,VALID,372.176,VALID,22.6435,VALID,302,VALID,0,
2016-08-07, 15:30:04,VALID,919.045,VALID,0,VALID,75.9445,VALID,376.259,VALID,22.624,VALID,299,VALID,0,
2016-08-07, 15:31:04,VALID,919.036,VALID,0,VALID,76.1656,VALID,379.59,VALID,22.7996,VALID,346,VALID,0,
2016-08-07, 15:32:04,VALID,919.07,VALID,0,VALID,74.6561,VALID,383.028,VALID,22.9753,VALID,347,VALID,0,
2016-08-07, 15:33:04,VALID,919.072,VALID,0,VALID,74.1377,VALID,386.466,VALID,23.229,VALID,335,VALID,0,
2016-08-07, 15:34:04,VALID,919.087,VALID,0,VALID,71.096,VALID,389.797,VALID,23.229,VALID,295,VALID,0,
2016-08-07, 15:35:04,VALID,919.059,VALID,0,VALID,72.5063,VALID,393.557,VALID,23.1899,VALID,13,VALID,0,
2016-08-07, 15:36:04,VALID,919.09,VALID,0,VALID,72.1404,VALID,396.78,VALID,23.2485,VALID,10,VALID,0.221094,
2016-08-07, 15:37:04,VALID,919.092,VALID,0,VALID,71.4314,VALID,399.789,VALID,23.268,VALID,316,VALID,0,
2016-08-07, 15:38:04,VALID,919.079,VALID,0,VALID,71.9422,VALID,402.689,VALID,23.3851,VALID,12,VALID,0.0890625,
2016-08-07, 15:39:04,VALID,919.107,VALID,0,VALID,72.209,VALID,406.235,VALID,23.4028,VALID,12,VALID,0,
2016-08-07, 15:40:04,VALID,919.12,VALID,0,VALID,72.3005,VALID,408.921,VALID,23.4224,VALID,6,VALID,0,
2016-08-07, 15:41:04,VALID,919.115,VALID,0,VALID,71.1112,VALID,412.574,VALID,23.559,VALID,353,VALID,0,
2016-08-07, 15:42:04,VALID,919.098,VALID,0,VALID,70.4861,VALID,415.367,VALID,23.6761,VALID,318,VALID,0,
2016-08-07, 15:43:04,VALID,919.138,VALID,0,VALID,70.9206,VALID,418.591,VALID,23.8127,VALID,309,VALID,0,
2016-08-07, 15:44:04,VALID,919.151,VALID,0,VALID,70.3565,VALID,421.921,VALID,23.7932,VALID,351,VALID,0,
2016-08-07, 15:45:04,VALID,919.177,VALID,0,VALID,68.8776,VALID,424.07,VALID,23.8322,VALID,338,VALID,0,
2016-08-07, 15:46:04,VALID,919.186,VALID,0,VALID,68.5345,VALID,427.508,VALID,23.8517,VALID,284,VALID,0,
2016-08-07, 15:47:04,VALID,919.216,VALID,0,VALID,67.2614,VALID,431.269,VALID,23.8517,VALID,356,VALID,0,
2016-08-07, 15:48:04,VALID,919.188,VALID,0,VALID,68.1915,VALID,434.17,VALID,23.8926,VALID,340,VALID,0,
2016-08-07, 15:49:04,VALID,919.206,VALID,0,VALID,68.7022,VALID,437.178,VALID,23.9493,VALID,354,VALID,0,
2016-08-07, 15:50:04,VALID,919.236,VALID,0,VALID,67.3681,VALID,440.294,VALID,23.8908,VALID,291,VALID,0,
2016-08-07, 15:51:04,VALID,919.26,VALID,0,VALID,69.6552,VALID,444.699,VALID,23.8713,VALID,19,VALID,0,
2016-08-07, 15:52:04,VALID,919.285,VALID,0,VALID,68.7708,VALID,446.418,VALID,23.9884,VALID,24,VALID,0,
2016-08-07, 15:53:04,VALID,919.289,VALID,0,VALID,68.8471,VALID,449.856,VALID,24.0665,VALID,340,VALID,0,
2016-08-07, 15:54:04,VALID,919.288,VALID,0,VALID,67.7569,VALID,451.038,VALID,24.125,VALID,6,VALID,0,
2016-08-07, 15:55:04,VALID,919.268,VALID,0,VALID,68.0009,VALID,453.402,VALID,24.0842,VALID,315,VALID,0,
2016-08-07, 15:56:04,VALID,919.297,VALID,0,VALID,69.03,VALID,455.658,VALID,24.0451,VALID,357,VALID,0,
2016-08-07, 15:57:04,VALID,919.323,VALID,0,VALID,67.6121,VALID,462.104,VALID,24.2031,VALID,329,VALID,0,
2016-08-07, 15:58:04,VALID,919.31,VALID,0,VALID,68.4964,VALID,465.972,VALID,24.0274,VALID,317,VALID,0,
2016-08-07, 15:59:04,VALID,919.329,VALID,0,VALID,68.2601,VALID,468.551,VALID,23.9689,VALID,358,VALID,0,
2016-08-07, 16:00:04,VALID,919.344,VALID,0,VALID,68.7632,VALID,471.129,VALID,23.8499,VALID,322,VALID,0,
2016-08-07, 16:01:04,VALID,919.341,VALID,0,VALID,67.8865,VALID,473.171,VALID,23.8713,VALID,20,VALID,0.196875,
2016-08-07, 16:02:04,VALID,919.35,VALID,0,VALID,67.4062,VALID,477.361,VALID,23.8322,VALID,321,VALID,0,
2016-08-07, 16:03:04,VALID,919.399,VALID,0,VALID,68.1533,VALID,480.692,VALID,23.7151,VALID,300,VALID,0,
2016-08-07, 16:04:04,VALID,919.334,VALID,0,VALID,69.5408,VALID,482.948,VALID,23.6566,VALID,346,VALID,0.118359,
2016-08-07, 16:05:04,VALID,919.323,VALID,0,VALID,71.3933,VALID,485.634,VALID,23.7737,VALID,304,VALID,0,
2016-08-07, 16:06:04,VALID,919.311,VALID,0,VALID,67.3605,VALID,489.072,VALID,23.9085,VALID,29,VALID,0,
2016-08-07, 16:07:04,VALID,919.258,VALID,0,VALID,68.3439,VALID,491.866,VALID,24.086,VALID,358,VALID,0,
2016-08-07, 16:08:04,VALID,919.247,VALID,0,VALID,68.1457,VALID,495.089,VALID,24.3007,VALID,17,VALID,0,
2016-08-07, 16:09:04,VALID,919.237,VALID,0,VALID,67.1013,VALID,498.312,VALID,24.4569,VALID,29,VALID,0,
2016-08-07, 16:10:04,VALID,919.208,VALID,0,VALID,65.3784,VALID,501.643,VALID,24.3769,VALID,326,VALID,0,
2016-08-07, 16:11:04,VALID,919.204,VALID,0,VALID,65.4165,VALID,504.114,VALID,24.1037,VALID,286,VALID,0.00429688,
2016-08-07, 16:12:04,VALID,919.235,VALID,0,VALID,67.5892,VALID,507.23,VALID,24.0256,VALID,326,VALID,0,
2016-08-07, 16:13:04,VALID,919.261,VALID,0,VALID,68.2067,VALID,509.593,VALID,23.9085,VALID,283,VALID,0.00195313,
2016-08-07, 16:14:04,VALID,919.206,VALID,0,VALID,66.865,VALID,513.676,VALID,23.8694,VALID,305,VALID,0,
2016-08-07, 16:15:04,VALID,919.192,VALID,0,VALID,68.6107,VALID,514.965,VALID,23.8694,VALID,6,VALID,0,
2016-08-07, 16:16:04,VALID,919.174,VALID,0,VALID,68.3211,VALID,518.618,VALID,24.0256,VALID,10,VALID,0.224219,
2016-08-07, 16:17:04,VALID,919.166,VALID,0,VALID,69.3502,VALID,521.304,VALID,24.1427,VALID,11,VALID,0,
2016-08-07, 16:18:04,VALID,919.184,VALID,0,VALID,67.6731,VALID,525.28,VALID,24.1817,VALID,341,VALID,0.395312,
2016-08-07, 16:19:04,VALID,919.182,VALID,0,VALID,66.1408,VALID,526.784,VALID,24.2598,VALID,5,VALID,1.1418,
2016-08-07, 16:20:04,VALID,919.227,VALID,0,VALID,65.9654,VALID,530.33,VALID,24.4745,VALID,358,VALID,0.300781,
2016-08-07, 16:21:04,VALID,919.219,VALID,0,VALID,65.0201,VALID,532.693,VALID,24.5898,VALID,292,VALID,0,
2016-08-07, 16:22:04,VALID,919.242,VALID,0,VALID,65.043,VALID,535.916,VALID,24.5898,VALID,314,VALID,0,
2016-08-07, 16:23:04,VALID,919.263,VALID,0,VALID,64.7838,VALID,537.743,VALID,24.7088,VALID,333,VALID,0,
2016-08-07, 16:24:04,VALID,919.263,VALID,0,VALID,65.2488,VALID,540.751,VALID,24.7069,VALID,341,VALID,0,
2016-08-07, 16:25:04,VALID,919.284,VALID,0,VALID,62.2757,VALID,543.008,VALID,24.746,VALID,340,VALID,0,
2016-08-07, 16:26:04,VALID,919.243,VALID,0,VALID,62.4358,VALID,545.801,VALID,24.6679,VALID,325,VALID,0,
2016-08-07, 16:27:04,VALID,919.264,VALID,0,VALID,64.4179,VALID,548.38,VALID,24.5312,VALID,302,VALID,0,
2016-08-07, 16:28:04,VALID,919.293,VALID,0,VALID,66.804,VALID,551.173,VALID,24.3946,VALID,359,VALID,0,
2016-08-07, 16:29:04,VALID,919.322,VALID,0,VALID,68.3744,VALID,553.967,VALID,24.5117,VALID,360,VALID,0,
2016-08-07, 16:30:04,VALID,919.366,VALID,0,VALID,65.9654,VALID,556.653,VALID,24.7283,VALID,326,VALID,0,
2016-08-07, 16:31:04,VALID,919.329,VALID,0,VALID,66.804,VALID,559.554,VALID,24.6874,VALID,11,VALID,0,
2016-08-07, 16:32:04,VALID,919.341,VALID,0,VALID,66.0874,VALID,562.24,VALID,24.7265,VALID,339,VALID,0,
2016-08-07, 16:33:04,VALID,919.338,VALID,0,VALID,64.6847,VALID,564.603,VALID,24.8631,VALID,355,VALID,0,
2016-08-07, 16:34:04,VALID,919.31,VALID,0,VALID,63.4344,VALID,567.826,VALID,24.8436,VALID,290,VALID,0,
2016-08-07, 16:35:04,VALID,919.281,VALID,0,VALID,65.0049,VALID,570.405,VALID,24.8045,VALID,349,VALID,0,
2016-08-07, 16:36:04,VALID,919.251,VALID,0,VALID,65.0049,VALID,573.521,VALID,24.785,VALID,352,VALID,0,
2016-08-07, 16:37:04,VALID,919.285,VALID,0,VALID,64.3111,VALID,577.174,VALID,24.7069,VALID,307,VALID,0.00195313,
2016-08-07, 16:38:04,VALID,919.243,VALID,0,VALID,65.8587,VALID,579,VALID,24.6112,VALID,335,VALID,0,
2016-08-07, 16:39:04,VALID,919.287,VALID,0,VALID,67.7112,VALID,583.191,VALID,24.6874,VALID,321,VALID,0,
2016-08-07, 16:40:04,VALID,919.29,VALID,0,VALID,66.4,VALID,584.158,VALID,24.7655,VALID,315,VALID,0,
2016-08-07, 16:41:04,VALID,919.281,VALID,0,VALID,66.4152,VALID,586.844,VALID,24.9021,VALID,345,VALID,0,
2016-08-07, 16:42:04,VALID,919.282,VALID,0,VALID,64.6389,VALID,590.711,VALID,25.0388,VALID,339,VALID,0,
2016-08-07, 16:43:04,VALID,919.3,VALID,0,VALID,61.742,VALID,592.538,VALID,25.0388,VALID,326,VALID,0,
2016-08-07, 16:44:04,VALID,919.329,VALID,0,VALID,63.9833,VALID,594.687,VALID,24.9607,VALID,338,VALID,0.160547,
2016-08-07, 16:45:04,VALID,919.302,VALID,0,VALID,64.3264,VALID,598.877,VALID,24.8241,VALID,19,VALID,0.109375,
2016-08-07, 16:46:04,VALID,919.292,VALID,0,VALID,64.799,VALID,600.381,VALID,24.8241,VALID,314,VALID,0,
2016-08-07, 16:47:04,VALID,919.299,VALID,0,VALID,64.6694,VALID,604.249,VALID,24.746,VALID,8,VALID,0.00390625,
2016-08-07, 16:48:04,VALID,919.278,VALID,0,VALID,66.2399,VALID,607.042,VALID,24.8045,VALID,5,VALID,0,
2016-08-07, 16:49:04,VALID,919.27,VALID,0,VALID,66.2551,VALID,610.373,VALID,24.9802,VALID,352,VALID,0.00351562,
2016-08-07, 16:50:04,VALID,919.302,VALID,0,VALID,64.3264,VALID,611.662,VALID,25.1169,VALID,317,VALID,0,
2016-08-07, 16:51:04,VALID,919.313,VALID,0,VALID,62.573,VALID,617.142,VALID,25.1559,VALID,316,VALID,0.1375,
2016-08-07, 16:52:04,VALID,919.325,VALID,0,VALID,65.3022,VALID,618.969,VALID,25.1169,VALID,6,VALID,0,
2016-08-07, 16:53:04,VALID,919.369,VALID,0,VALID,63.3963,VALID,621.762,VALID,25.1559,VALID,297,VALID,0,
2016-08-07, 16:54:04,VALID,919.374,VALID,0,VALID,62.4282,VALID,624.985,VALID,25.2145,VALID,312,VALID,0,
2016-08-07, 16:55:04,VALID,919.38,VALID,0,VALID,63.1371,VALID,628.746,VALID,25.3707,VALID,264,VALID,0,
2016-08-07, 16:56:04,VALID,919.37,VALID,0,VALID,61.399,VALID,631.969,VALID,25.5445,VALID,264,VALID,0,
2016-08-07, 16:57:04,VALID,919.392,VALID,0,VALID,60.347,VALID,634.44,VALID,25.7026,VALID,325,VALID,0.147656,
2016-08-07, 16:58:04,VALID,919.42,VALID,0,VALID,61.8564,VALID,638.415,VALID,25.566,VALID,276,VALID,0,
2016-08-07, 16:59:04,VALID,919.379,VALID,0,VALID,61.7344,VALID,644.002,VALID,25.5074,VALID,305,VALID,0,
2016-08-07, 17:00:04,VALID,919.403,VALID,0,VALID,60.8196,VALID,643.573,VALID,25.3102,VALID,282,VALID,1.11289,
2016-08-07, 17:01:04,VALID,919.397,VALID,0,VALID,62.1308,VALID,643.787,VALID,25.0193,VALID,306,VALID,0,
2016-08-07, 17:02:04,VALID,919.379,VALID,0,VALID,63.8232,VALID,637.878,VALID,24.9783,VALID,310,VALID,0,
2016-08-07, 17:03:04,VALID,919.4,VALID,0,VALID,63.5107,VALID,633.258,VALID,25.1559,VALID,322,VALID,0,
2016-08-07, 17:04:04,VALID,919.454,VALID,0,VALID,61.7878,VALID,638.845,VALID,25.4078,VALID,313,VALID,0,
2016-08-07, 17:05:04,VALID,919.44,VALID,0,VALID,62.4891,VALID,636.804,VALID,25.6226,VALID,311,VALID,0,
2016-08-07, 17:06:04,VALID,919.443,VALID,0,VALID,60.0344,VALID,615.315,VALID,25.5054,VALID,258,VALID,0,
2016-08-07, 17:07:04,VALID,919.413,VALID,0,VALID,61.8793,VALID,648.085,VALID,25.5074,VALID,17,VALID,0,
2016-08-07, 17:08:04,VALID,919.398,VALID,0,VALID,61.4447,VALID,674.945,VALID,25.566,VALID,315,VALID,0,
2016-08-07, 17:09:04,VALID,919.373,VALID,0,VALID,61.3609,VALID,663.127,VALID,25.6636,VALID,294,VALID,0,
2016-08-07, 17:10:04,VALID,919.39,VALID,0,VALID,59.2568,VALID,640.886,VALID,25.7202,VALID,324,VALID,0.379687,
2016-08-07, 17:11:04,VALID,919.378,VALID,0,VALID,60.9263,VALID,631.109,VALID,25.6636,VALID,318,VALID,0.0871094,
2016-08-07, 17:12:04,VALID,919.379,VALID,0,VALID,62.2071,VALID,583.191,VALID,25.5835,VALID,22,VALID,0,
2016-08-07, 17:13:04,VALID,919.393,VALID,0,VALID,62.6492,VALID,599.414,VALID,25.4859,VALID,311,VALID,0.349219,
2016-08-07, 17:14:04,VALID,919.378,VALID,0,VALID,63.4039,VALID,587.918,VALID,25.4488,VALID,2,VALID,0,
2016-08-07, 17:15:04,VALID,919.421,VALID,0,VALID,61.0026,VALID,561.702,VALID,25.4469,VALID,276,VALID,0,
2016-08-07, 17:16:04,VALID,919.408,VALID,0,VALID,61.3228,VALID,612.844,VALID,25.5074,VALID,48,VALID,0,
2016-08-07, 17:17:04,VALID,919.417,VALID,0,VALID,61.6201,VALID,602.423,VALID,25.5445,VALID,353,VALID,0,
2016-08-07, 17:18:04,VALID,919.396,VALID,0,VALID,61.0102,VALID,641.209,VALID,25.6226,VALID,332,VALID,0,
2016-08-07, 17:19:04,VALID,919.425,VALID,0,VALID,62.9465,VALID,676.127,VALID,25.7808,VALID,317,VALID,0,
2016-08-07, 17:20:04,VALID,919.415,VALID,0,VALID,60.3012,VALID,699.442,VALID,25.8784,VALID,229,VALID,0,
2016-08-07, 17:21:04,VALID,919.452,VALID,0,VALID,61.9403,VALID,692.136,VALID,26.0326,VALID,143,VALID,0,
2016-08-07, 17:22:04,VALID,919.43,VALID,0,VALID,58.8375,VALID,690.202,VALID,26.2865,VALID,142,VALID,0,
2016-08-07, 17:23:04,VALID,919.443,VALID,0,VALID,59.2797,VALID,685.904,VALID,26.5033,VALID,130,VALID,0,
2016-08-07, 17:24:04,VALID,919.432,VALID,0,VALID,60.3393,VALID,658.937,VALID,26.5599,VALID,5,VALID,0,
2016-08-07, 17:25:04,VALID,919.438,VALID,0,VALID,58.6241,VALID,654.639,VALID,26.638,VALID,349,VALID,0,
2016-08-07, 17:26:04,VALID,919.423,VALID,0,VALID,57.4806,VALID,634.547,VALID,26.7162,VALID,23,VALID,0,
2016-08-07, 17:27:04,VALID,919.398,VALID,0,VALID,58.8756,VALID,646.259,VALID,26.5013,VALID,23,VALID,0.963672,
2016-08-07, 17:28:04,VALID,919.444,VALID,0,VALID,61.8869,VALID,644.647,VALID,26.4057,VALID,6,VALID,0,
2016-08-07, 17:29:04,VALID,919.372,VALID,0,VALID,59.3559,VALID,669.036,VALID,26.3471,VALID,282,VALID,0,
2016-08-07, 17:30:04,VALID,919.346,VALID,0,VALID,58.7308,VALID,692.351,VALID,26.4252,VALID,278,VALID,0,
2016-08-07, 17:31:04,VALID,919.328,VALID,0,VALID,61.1932,VALID,628.531,VALID,26.3256,VALID,360,VALID,0,
2016-08-07, 17:32:04,VALID,919.306,VALID,0,VALID,59.8743,VALID,689.342,VALID,26.2299,VALID,318,VALID,0,
2016-08-07, 17:33:04,VALID,919.279,VALID,0,VALID,61.9021,VALID,648.407,VALID,25.9155,VALID,305,VALID,0,
2016-08-07, 17:34:04,VALID,919.292,VALID,0,VALID,62.8779,VALID,674.408,VALID,25.976,VALID,294,VALID,0,
2016-08-07, 17:35:04,VALID,919.354,VALID,0,VALID,61.4676,VALID,708.789,VALID,25.935,VALID,234,VALID,0.00390625,
2016-08-07, 17:36:04,VALID,919.359,VALID,0,VALID,62.5196,VALID,701.268,VALID,25.8178,VALID,275,VALID,0,
2016-08-07, 17:37:04,VALID,919.392,VALID,0,VALID,61.5896,VALID,633.366,VALID,25.8784,VALID,311,VALID,0,
2016-08-07, 17:38:04,VALID,919.354,VALID,0,VALID,62.0241,VALID,698.69,VALID,25.6421,VALID,294,VALID,0,
2016-08-07, 17:39:04,VALID,919.375,VALID,0,VALID,63.4802,VALID,713.732,VALID,25.5835,VALID,257,VALID,0,
2016-08-07, 17:40:04,VALID,919.358,VALID,0,VALID,63.6784,VALID,701.054,VALID,25.5855,VALID,274,VALID,0,
2016-08-07, 17:41:04,VALID,919.336,VALID,0,VALID,64.0443,VALID,691.384,VALID,25.6031,VALID,265,VALID,0.488281,
2016-08-07, 17:42:04,VALID,919.293,VALID,0,VALID,63.7546,VALID,673.549,VALID,25.4293,VALID,266,VALID,0,
2016-08-07, 17:43:04,VALID,919.342,VALID,0,VALID,65.0049,VALID,698.045,VALID,25.2712,VALID,261,VALID,0.288281,
2016-08-07, 17:44:04,VALID,919.322,VALID,0,VALID,64.5246,VALID,668.177,VALID,25.2145,VALID,244,VALID,0.332812,
2016-08-07, 17:45:04,VALID,919.287,VALID,0,VALID,65.4699,VALID,534.305,VALID,25.0974,VALID,244,VALID,1.7793,
2016-08-07, 17:46:04,VALID,919.32,VALID,0,VALID,69.8534,VALID,637.019,VALID,25.0564,VALID,353,VALID,0.228516,
2016-08-07, 17:47:04,VALID,919.275,VALID,0,VALID,67.5663,VALID,668.929,VALID,25.1559,VALID,17,VALID,1.6875,
2016-08-07, 17:48:04,VALID,919.295,VALID,0,VALID,65.6757,VALID,625.415,VALID,25.2712,VALID,17,VALID,1.54844,
2016-08-07, 17:49:04,VALID,919.271,VALID,0,VALID,65.5919,VALID,587.381,VALID,25.4879,VALID,347,VALID,0.19375,
2016-08-07, 17:50:04,VALID,919.196,VALID,0,VALID,64.2806,VALID,626.812,VALID,25.7222,VALID,25,VALID,0.126563,
2016-08-07, 17:51:04,VALID,919.185,VALID,0,VALID,63.038,VALID,637.986,VALID,25.7612,VALID,230,VALID,1.0418,
2016-08-07, 17:52:04,VALID,919.218,VALID,0,VALID,65.1192,VALID,668.391,VALID,25.605,VALID,244,VALID,0,
2016-08-07, 17:53:04,VALID,919.2,VALID,0,VALID,65.0887,VALID,758.535,VALID,25.7202,VALID,14,VALID,0,